sat.trackr.live / text

‹ back to catalog

LEMUR-2-KARENDARRELL

NORAD 64841 · 2025-135BU

PAYLOAD ACTIVE UNKNOWN

§ Identity

Operator
Country
US
Launch date
2025-06-23
Launch site
AFWTR
Launch vehicle
Mass (kg)
RCS (m²)

Purposes: earth_obs

External: N2YO · Heavens-Above · Gunter

§ Orbital elements

Epoch: 2026-05-25T00:51:54.832320Z

Period
96.02 min
Inclination
97.7670°
Eccentricity
0.0008265
Mean motion
14.99722395 rev/d
Perigee alt
562.0 km
Apogee alt
573.5 km
Semi-major
6,945.9 km
B*
5.1104e-4
RAAN
261.2923°
Arg perigee
293.5844°
Mean anomaly
66.4511°
Rev number
5,054

§ Raw data

LEMUR-2-KARENDARRELL1 64841U 25135BU  26145.03605130  .00006255  00000+0  51104-3 0  99962 64841  97.7670 261.2923 0008265 293.5844  66.4511 14.99722395 50540

JSON: /api/v1/satellites/64841 · /tle

For live sub-satellite position, see the globe view (requires WebGL).

§ Visibility from observer

Set your observer location to see the next 7 days of passes ≥ 10°. The values pass through the URL so the page stays shareable.

No JS? Fill the form by hand. The geolocation button needs JavaScript.